St. Petersburg Airport, FL

5:44 PM EDT on May 26, 2018 (GMT -0400)
Saint Petersburg-Clearwater International

Weather History for KPIE - May, 2014

Change the Weather History Date:

Friday, May 2, 2014

  Actual Average Record
Temperature  
Mean Temperature 75 °F -  
Max Temperature 79 °F 84 °F 92 °F (1990)
Min Temperature 71 °F 68 °F 55 °F (1999)
Cooling Degree Days 10    
Growing Degree Days 25 (Base 50)    
Moisture  
Dew Point 71 °F    
Average Humidity 89    
Maximum Humidity 94    
Minimum Humidity 79    
Precipitation  
Precipitation 1.38 in - - ()
Sea Level Pressure  
Sea Level Pressure 29.92 in    
Wind  
Wind Speed 7 mph (South)    
Max Wind Speed 23 mph    
Max Gust Speed 26 mph    
Visibility 7 miles    
Events Fog , Rain , Thunderstorm    
Averages and records for this station are not official NWS values.
T = Trace of Precipitation, MM = Missing Value Source: NWS Daily Summary

Daily Weather History Graph

Daily Weather History Graph

Search for Another Location

Airport or City:

Astronomy

May. 02, 2014 Rise Set
Actual Time 6:50 AM EDT 8:05 PM EDT
Civil Twilight 6:25 AM EDT 8:30 PM EDT
Nautical Twilight 5:55 AM EDT 9:00 PM EDT
Astronomical Twilight 5:25 AM EDT 9:30 PM EDT
Moon 9:31 AM EDT (5/2) 11:22 PM EDT (5/2)
Length of Visible Light 14h 05m
Length of Day
13h 15m
Waxing Crescent, 12% of the Moon is Illuminated
May 2
Waxing Crescent
May 6
First Quarter
May 14
Full
May 21
Last Quarter
May 28
New

Hourly Weather History & Observations

Time (EDT) Temp. Dew Point Humidity Pressure Visibility Wind Dir Wind Speed Gust Speed Precip Events Conditions
12:53 AM 75.9 °F 71.1 °F 85% 29.95 in 10.0 mi SE 5.8 mph - N/A   Clear
1:53 AM 77.0 °F 73.0 °F 88% 29.94 in 10.0 mi SE 4.6 mph - N/A   Scattered Clouds
2:03 AM 77.0 °F 73.0 °F 88% 29.93 in 10.0 mi SE 5.8 mph - N/A   Mostly Cloudy
2:15 AM 77.0 °F 73.9 °F 90% 29.93 in 9.0 mi SSE 5.8 mph - N/A   Scattered Clouds
2:24 AM 77.0 °F 73.9 °F 90% 29.92 in 9.0 mi SSE 6.9 mph - N/A   Mostly Cloudy
2:33 AM 77.0 °F 73.9 °F 90% 29.92 in 9.0 mi SE 4.6 mph - N/A   Partly Cloudy
2:46 AM 77.0 °F 73.9 °F 90% 29.92 in 9.0 mi South 4.6 mph - N/A   Mostly Cloudy
2:53 AM 77.0 °F 73.9 °F 90% 29.92 in 9.0 mi SSW 4.6 mph - N/A   Mostly Cloudy
3:00 AM 77.0 °F 73.9 °F 90% 29.92 in 9.0 mi SSW 3.5 mph - N/A   Mostly Cloudy
3:25 AM 75.9 °F 73.9 °F 94% 29.92 in 8.0 mi South 4.6 mph - N/A   Partly Cloudy
3:53 AM 75.9 °F 73.0 °F 91% 29.92 in 8.0 mi SSE 3.5 mph - N/A   Partly Cloudy
4:53 AM 75.9 °F 73.9 °F 94% 29.91 in 8.0 mi South 3.5 mph - N/A   Mostly Cloudy
5:53 AM 75.9 °F 73.0 °F 91% 29.90 in 8.0 mi South 6.9 mph - N/A   Scattered Clouds
6:53 AM 78.1 °F 72.0 °F 81% 29.89 in 10.0 mi South 12.7 mph - N/A   Overcast
7:27 AM 77.0 °F 70.0 °F 79% 29.91 in 10.0 mi South 9.2 mph - N/A Thunderstorm Overcast
7:42 AM 78.1 °F 71.1 °F 79% 29.91 in 10.0 mi South 8.1 mph - N/A   Overcast
7:53 AM 78.1 °F 72.0 °F 81% 29.90 in 10.0 mi South 9.2 mph - N/A   Mostly Cloudy
8:16 AM 79.0 °F 73.0 °F 82% 29.89 in 10.0 mi SSW 12.7 mph - N/A Thunderstorm Mostly Cloudy
8:27 AM 78.1 °F 73.0 °F 84% 29.89 in 7.0 mi South 12.7 mph - 0.01 in Rain , Thunderstorm Light Rain
8:41 AM 75.9 °F 72.0 °F 87% 29.91 in 1.8 mi SW 23.0 mph - 0.09 in Rain , Thunderstorm Heavy Rain
8:47 AM 73.4 °F 68.0 °F 83% 29.91 in 0.8 mi SW 19.6 mph 26.5 mph 0.21 in Rain , Thunderstorm Heavy Rain
8:53 AM 73.9 °F 70.0 °F 87% 29.90 in 0.5 mi West 15.0 mph 26.5 mph 0.42 in Fog , Rain , Thunderstorm Heavy Rain
9:00 AM 73.0 °F 70.0 °F 90% 29.90 in 2.0 mi NW 15.0 mph 21.9 mph 0.03 in Rain , Thunderstorm Light Rain
9:10 AM 73.0 °F 70.0 °F 90% 29.90 in 4.0 mi West 11.5 mph - 0.05 in Rain Rain
9:15 AM 73.0 °F 70.0 °F 90% 29.90 in 2.5 mi West 12.7 mph 18.4 mph 0.07 in Rain , Thunderstorm Rain
9:34 AM 73.0 °F 70.0 °F 90% 29.91 in 0.8 mi SW 6.9 mph 17.3 mph 0.31 in Rain Heavy Rain
9:41 AM 73.0 °F 70.0 °F 90% 29.92 in 2.0 mi WSW 6.9 mph - 0.32 in Rain Light Rain
9:47 AM 73.4 °F 69.8 °F 88% 29.92 in 7.0 mi West 8.1 mph - 0.33 in Rain Light Rain
9:53 AM 73.0 °F 70.0 °F 90% 29.92 in 7.0 mi NW 4.6 mph - 0.33 in Rain Light Rain
10:14 AM 73.0 °F 70.0 °F 90% 29.93 in 6.0 mi North 6.9 mph - 0.01 in Rain , Thunderstorm Light Rain
10:19 AM 73.0 °F 70.0 °F 90% 29.93 in 2.0 mi North 6.9 mph - 0.07 in Rain , Thunderstorm Rain
10:24 AM 73.0 °F 70.0 °F 90% 29.93 in 1.0 mi NNW 8.1 mph - 0.15 in Rain Heavy Rain
10:32 AM 73.0 °F 70.0 °F 90% 29.94 in 3.0 mi NNW 11.5 mph - 0.16 in Rain Light Rain
10:49 AM 73.4 °F 69.8 °F 88% 29.95 in 2.5 mi Variable 6.9 mph - 0.21 in Rain Rain
10:53 AM 73.0 °F 70.0 °F 90% 29.95 in 2.5 mi NNW 8.1 mph - 0.22 in Rain Rain
11:03 AM 73.0 °F 70.0 °F 90% 29.95 in 6.0 mi North 6.9 mph - 0.01 in Rain Light Rain
11:34 AM 73.9 °F 70.0 °F 87% 29.95 in 10.0 mi North 11.5 mph - 0.02 in   Overcast
11:50 AM 73.4 °F 71.6 °F 94% 29.96 in 10.0 mi North 8.1 mph - 0.02 in   Mostly Cloudy
11:53 AM 75.0 °F 71.1 °F 87% 29.96 in 10.0 mi North 9.2 mph - 0.02 in   Mostly Cloudy
12:53 PM 75.0 °F 71.1 °F 87% 29.95 in 10.0 mi NE 5.8 mph - 0.01 in   Overcast
1:53 PM 75.9 °F 71.1 °F 85% 29.94 in 10.0 mi North 6.9 mph - N/A   Overcast
2:53 PM 73.0 °F 70.0 °F 90% 29.92 in 3.0 mi North 6.9 mph - 0.13 in Rain Rain
3:53 PM 73.9 °F 71.1 °F 91% 29.91 in 9.0 mi East 6.9 mph - 0.07 in Rain Light Rain
3:59 PM 73.9 °F 71.1 °F 91% 29.90 in 10.0 mi East 8.1 mph - 0.00 in Rain Light Rain
4:31 PM 73.9 °F 71.1 °F 91% 29.90 in 5.0 mi ESE 3.5 mph - 0.02 in Rain Rain
4:38 PM 73.9 °F 71.1 °F 91% 29.90 in 4.0 mi East 4.6 mph - 0.04 in Rain Light Rain
4:53 PM 73.0 °F 71.1 °F 93% 29.89 in 9.0 mi East 4.6 mph - 0.06 in Rain Light Rain
5:02 PM 73.0 °F 71.1 °F 93% 29.90 in 10.0 mi East 4.6 mph - 0.00 in Rain Light Rain
5:10 PM 73.0 °F 70.0 °F 90% 29.90 in 8.0 mi East 5.8 mph - 0.01 in Rain Light Rain
5:53 PM 73.0 °F 70.0 °F 90% 29.90 in 7.0 mi SSE 8.1 mph - 0.07 in Rain Light Rain
6:53 PM 72.0 °F 69.1 °F 91% 29.92 in 10.0 mi SSE 3.5 mph - 0.01 in   Mostly Cloudy
7:53 PM 71.6 °F 69.8 °F 94% 29.92 in 10.0 mi SE 5.8 mph - N/A   Partly Cloudy
8:53 PM 72.0 °F 70.0 °F 93% 29.94 in 10.0 mi SSE 3.5 mph - N/A   Mostly Cloudy
9:53 PM 72.0 °F 70.0 °F 93% 29.95 in 9.0 mi Calm Calm - 0.01 in Rain Light Rain
10:53 PM 72.0 °F 69.1 °F 91% 29.95 in 10.0 mi South 5.8 mph - 0.02 in Rain Light Rain
11:53 PM 72.0 °F 69.1 °F 91% 29.93 in 10.0 mi South 4.6 mph - 0.01 in   Scattered Clouds